• In Deutschland
  • Länderverzeichnis
  • Für 7 Tage
  • Wassertemperatur
  • Satellitenkarten
  • Wetterkarte
  • Widgets
  • user-avatar
    Anmelden

    Stündliche Wetter Ucar

    Heute, 24 September, Montag

    Zeit Temperatur Niederschläge Wind Luftdruck Luftfeuchtigkeit
    00:00 +23°C° 0.2 mm 1 m/S 762 mmHg 74%
    01:00 +23°C° 0.1 mm 1 m/S 762 mmHg 74%
    02:00 +23°C° 0.1 mm 1 m/S 762 mmHg 75%
    03:00 +22°C° 0 mm 1 m/S 762 mmHg 76%
    04:00 +22°C° 0 mm 1 m/S 762 mmHg 76%
    05:00 +22°C° 0 mm 1 m/S 762 mmHg 75%
    06:00 +22°C° 0 mm 1 m/S 762 mmHg 75%
    07:00 +24°C° 0 mm 2 m/S 762 mmHg 67%
    08:00 +26°C° 0 mm 3 m/S 762 mmHg 59%
    09:00 +28°C° 0 mm 3 m/S 762 mmHg 50%
    10:00 +29°C° 0 mm 3 m/S 762 mmHg 47%
    11:00 +30°C° 0 mm 3 m/S 762 mmHg 43%
    12:00 +31°C° 0 mm 2 m/S 762 mmHg 39%
    13:00 +31°C° 0 mm 2 m/S 762 mmHg 38%
    14:00 +31°C° 0 mm 2 m/S 762 mmHg 37%
    15:00 +32°C° 0 mm 2 m/S 762 mmHg 37%
    16:00 +30°C° 0 mm 2 m/S 762 mmHg 40%
    17:00 +29°C° 0 mm 2 m/S 762 mmHg 44%
    18:00 +28°C° 0 mm 2 m/S 763 mmHg 48%
    19:00 +27°C° 0 mm 2 m/S 763 mmHg 51%
    20:00 +26°C° 0 mm 3 m/S 763 mmHg 55%
    21:00 +25°C° 0 mm 3 m/S 763 mmHg 58%
    22:00 +25°C° 0 mm 2 m/S 763 mmHg 61%
    23:00 +24°C° 0 mm 2 m/S 763 mmHg 63%

    Morgen, 25 September, Dienstag

    Zeit Temperatur Niederschläge Wind Luftdruck Luftfeuchtigkeit
    00:00 +24°C° 0 mm 2 m/S 762 mmHg 66%
    01:00 +23°C° 0 mm 2 m/S 762 mmHg 66%
    02:00 +23°C° 0 mm 2 m/S 762 mmHg 67%
    03:00 +23°C° 0 mm 2 m/S 762 mmHg 68%
    04:00 +23°C° 0 mm 1 m/S 762 mmHg 68%
    05:00 +22°C° 0 mm 1 m/S 761 mmHg 68%
    06:00 +22°C° 0 mm 1 m/S 761 mmHg 68%
    07:00 +24°C° 0 mm 1 m/S 761 mmHg 63%
    08:00 +26°C° 0 mm 2 m/S 761 mmHg 58%
    09:00 +27°C° 0 mm 2 m/S 760 mmHg 53%
    10:00 +28°C° 0 mm 2 m/S 760 mmHg 50%
    11:00 +29°C° 0 mm 2 m/S 759 mmHg 46%
    12:00 +30°C° 0 mm 2 m/S 758 mmHg 43%
    13:00 +31°C° 0 mm 2 m/S 758 mmHg 41%
    14:00 +31°C° 0 mm 2 m/S 757 mmHg 40%
    15:00 +32°C° 0 mm 2 m/S 757 mmHg 38%
    16:00 +30°C° 0 mm 1 m/S 757 mmHg 42%
    17:00 +29°C° 0 mm 1 m/S 757 mmHg 45%
    18:00 +26°C° 0 mm 0 m/S 757 mmHg 49%
    19:00 +27°C° 0 mm 1 m/S 758 mmHg 51%
    20:00 +27°C° 0 mm 1 m/S 758 mmHg 53%
    21:00 +26°C° 0 mm 1 m/S 758 mmHg 54%
    22:00 +25°C° 0 mm 1 m/S 759 mmHg 57%
    23:00 +25°C° 0 mm 1 m/S 759 mmHg 59%

    übermorgen, 26 September, Mittwoch

    Zeit Temperatur Niederschläge Wind Luftdruck Luftfeuchtigkeit
    00:00 +24°C° 0 mm 2 m/S 759 mmHg 61%
    01:00 +24°C° 0 mm 1 m/S 759 mmHg 62%
    02:00 +24°C° 0 mm 1 m/S 759 mmHg 64%
    03:00 +23°C° 0 mm 1 m/S 759 mmHg 65%
    04:00 +23°C° 0 mm 1 m/S 759 mmHg 65%
    05:00 +23°C° 0 mm 1 m/S 760 mmHg 66%
    06:00 +23°C° 0 mm 1 m/S 760 mmHg 67%
    07:00 +25°C° 0 mm 2 m/S 760 mmHg 59%
    08:00 +26°C° 0 mm 2 m/S 761 mmHg 51%
    09:00 +28°C° 0 mm 3 m/S 761 mmHg 43%
    10:00 +29°C° 0 mm 3 m/S 761 mmHg 41%
    11:00 +30°C° 0 mm 3 m/S 761 mmHg 39%
    12:00 +31°C° 0 mm 3 m/S 761 mmHg 38%
    13:00 +31°C° 0 mm 3 m/S 761 mmHg 38%
    14:00 +31°C° 0 mm 3 m/S 761 mmHg 38%
    15:00 +33°C° 0 mm 3 m/S 761 mmHg 39%
    16:00 +30°C° 0 mm 4 m/S 761 mmHg 43%
    17:00 +29°C° 0 mm 4 m/S 762 mmHg 47%
    18:00 +28°C° 0 mm 4 m/S 762 mmHg 52%
    19:00 +27°C° 0.1 mm 4 m/S 763 mmHg 55%
    20:00 +26°C° 0.1 mm 5 m/S 763 mmHg 58%
    21:00 +25°C° 0.1 mm 5 m/S 764 mmHg 60%
    22:00 +23°C° 0 mm 4 m/S 764 mmHg 61%
    23:00 +23°C° 0 mm 4 m/S 764 mmHg 62%

    27 September, Donnerstag

    Zeit Temperatur Niederschläge Wind Luftdruck Luftfeuchtigkeit
    00:00 +22°C° 0 mm 4 m/S 764 mmHg 63%
    01:00 +22°C° 0 mm 3 m/S 764 mmHg 63%
    02:00 +22°C° 0 mm 3 m/S 765 mmHg 63%
    03:00 +21°C° 0 mm 3 m/S 765 mmHg 63%
    04:00 +21°C° 0 mm 2 m/S 765 mmHg 64%
    05:00 +21°C° 0 mm 2 m/S 765 mmHg 64%
    06:00 +21°C° 0 mm 2 m/S 765 mmHg 64%
    07:00 +21°C° 0 mm 2 m/S 765 mmHg 62%
    08:00 +23°C° 0 mm 2 m/S 766 mmHg 60%
    09:00 +23°C° 0 mm 2 m/S 766 mmHg 58%
    10:00 +24°C° 0 mm 2 m/S 766 mmHg 56%
    11:00 +25°C° 0 mm 3 m/S 765 mmHg 54%
    12:00 +25°C° 0 mm 3 m/S 765 mmHg 52%
    13:00 +26°C° 0 mm 3 m/S 765 mmHg 51%
    14:00 +26°C° 0 mm 2 m/S 765 mmHg 50%
    15:00 +27°C° 0 mm 2 m/S 765 mmHg 49%
    16:00 +26°C° 0 mm 2 m/S 765 mmHg 52%
    17:00 +25°C° 0 mm 2 m/S 765 mmHg 55%
    18:00 +24°C° 0 mm 3 m/S 765 mmHg 58%
    19:00 +24°C° 0 mm 3 m/S 766 mmHg 60%
    20:00 +22°C° 0 mm 3 m/S 766 mmHg 62%
    21:00 +22°C° 0 mm 3 m/S 767 mmHg 64%
    22:00 +21°C° 0 mm 2 m/S 767 mmHg 66%
    23:00 +21°C° 0 mm 2 m/S 766 mmHg 68%

    28 September, Freitag

    Zeit Temperatur Niederschläge Wind Luftdruck Luftfeuchtigkeit
    00:00 +20°C° 0 mm 2 m/S 766 mmHg 70%
    01:00 +21°C° 0 mm 1 m/S 766 mmHg 71%
    02:00 +21°C° 0 mm 1 m/S 766 mmHg 72%
    03:00 +21°C° 0 mm 1 m/S 766 mmHg 73%
    04:00 +21°C° 0 mm 1 m/S 766 mmHg 74%
    05:00 +21°C° 0 mm 1 m/S 766 mmHg 75%
    06:00 +20°C° 0 mm 1 m/S 767 mmHg 75%
    07:00 +21°C° 0 mm 1 m/S 767 mmHg 73%
    08:00 +22°C° 0 mm 1 m/S 767 mmHg 70%
    09:00 +23°C° 0 mm 2 m/S 767 mmHg 67%
    10:00 +24°C° 0 mm 2 m/S 766 mmHg 64%
    11:00 +25°C° 0 mm 2 m/S 766 mmHg 61%
    12:00 +25°C° 0 mm 3 m/S 766 mmHg 58%
    13:00 +26°C° 0 mm 3 m/S 766 mmHg 57%
    14:00 +26°C° 0 mm 3 m/S 765 mmHg 55%
    15:00 +27°C° 0 mm 3 m/S 765 mmHg 54%
    16:00 +26°C° 0 mm 2 m/S 765 mmHg 58%
    17:00 +25°C° 0 mm 2 m/S 765 mmHg 61%
    18:00 +24°C° 0 mm 2 m/S 764 mmHg 65%
    19:00 +24°C° 0 mm 2 m/S 765 mmHg 67%
    20:00 +23°C° 0 mm 2 m/S 765 mmHg 69%
    21:00 +23°C° 0 mm 2 m/S 765 mmHg 71%
    22:00 +21°C° 0 mm 2 m/S 765 mmHg 73%
    23:00 +21°C° 0 mm 2 m/S 764 mmHg 75%

    29 September, Samstag

    Zeit Temperatur Niederschläge Wind Luftdruck Luftfeuchtigkeit
    00:00 +21°C° 0 mm 1 m/S 764 mmHg 77%
    01:00 +21°C° 0 mm 1 m/S 764 mmHg 78%
    02:00 +21°C° 0 mm 1 m/S 763 mmHg 78%
    03:00 +21°C° 0 mm 1 m/S 763 mmHg 79%
    04:00 +21°C° 0 mm 1 m/S 763 mmHg 80%
    05:00 +18°C° 0 mm 0 m/S 763 mmHg 81%
    06:00 +18°C° 0 mm 0 m/S 763 mmHg 82%
    07:00 +22°C° 0 mm 1 m/S 762 mmHg 78%
    08:00 +23°C° 0 mm 1 m/S 762 mmHg 73%
    09:00 +24°C° 0 mm 1 m/S 762 mmHg 68%
    10:00 +26°C° 0 mm 1 m/S 761 mmHg 62%
    11:00 +27°C° 0 mm 1 m/S 761 mmHg 56%
    12:00 +28°C° 0 mm 1 m/S 760 mmHg 50%
    13:00 +29°C° 0 mm 1 m/S 760 mmHg 47%
    14:00 +30°C° 0 mm 1 m/S 759 mmHg 45%
    15:00 +30°C° 0 mm 2 m/S 759 mmHg 42%
    16:00 +29°C° 0 mm 1 m/S 759 mmHg 46%
    17:00 +28°C° 0 mm 1 m/S 759 mmHg 50%
    18:00 +27°C° 0 mm 1 m/S 759 mmHg 54%
    19:00 +26°C° 0 mm 1 m/S 759 mmHg 58%
    20:00 +26°C° 0 mm 2 m/S 760 mmHg 61%
    21:00 +25°C° 0 mm 2 m/S 760 mmHg 65%
    22:00 +25°C° 0 mm 2 m/S 760 mmHg 67%
    23:00 +24°C° 0 mm 2 m/S 759 mmHg 70%
    Mehr zeigen